Time,TemperatureF,DewpointF,PressureIn,WindDirection,WindDirectionDegrees,WindSpeedMPH,WindSpeedGustMPH,Humidity,HourlyPrecipIn,Conditions,Clouds,dailyrainin,SolarRadiationWatts/m^2,SoftwareType,DateUTC
2013-02-25 00:00:00,42.5,42.0,30.24,East,88,5.0,12.0,98,0.00,,,0.00,0.0,WeatherDisplay:10.37,2013-02-24 22:00:00,
2013-02-25 00:10:00,42.5,42.0,30.24,East,83,7.0,12.0,98,0.00,,,0.00,0.0,WeatherDisplay:10.37,2013-02-24 22:10:00,
2013-02-25 00:20:00,42.5,42.0,30.24,East,82,6.0,9.0,98,0.00,,,0.00,0.0,WeatherDisplay:10.37,2013-02-24 22:20:00,
2013-02-25 00:30:00,42.6,42.1,30.24,East,80,7.0,10.0,98,0.00,,,0.00,0.0,WeatherDisplay:10.37,2013-02-24 22:30:00,
2013-02-25 00:40:00,42.6,42.1,30.24,East,89,5.0,9.0,98,0.00,,,0.00,0.0,WeatherDisplay:10.37,2013-02-24 22:40:00,
2013-02-25 00:50:00,42.6,42.1,30.24,East,85,5.0,9.0,98,0.00,,,0.00,0.0,WeatherDisplay:10.37,2013-02-24 22:50:00,
2013-02-25 01:00:00,42.6,42.1,30.24,East,81,5.0,6.0,98,0.00,,,0.00,0.0,WeatherDisplay:10.37,2013-02-24 23:00:00,
2013-02-25 01:10:00,42.5,42.0,30.24,East,88,0.0,6.0,98,0.00,,,0.00,0.0,WeatherDisplay:10.37,2013-02-24 23:10:00,
2013-02-25 01:20:00,42.5,42.0,30.25,ENE,58,3.0,5.0,98,0.00,,,0.00,0.0,WeatherDisplay:10.37,2013-02-24 23:20:00,
2013-02-25 01:30:00,42.4,41.9,30.24,ENE,73,3.0,6.0,98,0.00,,,0.00,0.0,WeatherDisplay:10.37,2013-02-24 23:30:00,
2013-02-25 01:40:00,42.3,41.8,30.24,ENE,68,6.0,7.0,98,0.00,,,0.00,0.0,WeatherDisplay:10.37,2013-02-24 23:40:00,
2013-02-25 01:50:00,42.2,41.7,30.24,East,95,6.0,7.0,98,0.00,,,0.00,0.0,WeatherDisplay:10.37,2013-02-24 23:50:00,
2013-02-25 02:00:00,42.2,41.7,30.24,East,87,3.0,6.0,98,0.00,,,0.00,0.0,WeatherDisplay:10.37,2013-02-25 00:00:00,
2013-02-25 02:10:00,42.2,41.7,30.23,East,90,5.0,7.0,98,0.00,,,0.00,0.0,WeatherDisplay:10.37,2013-02-25 00:10:00,
2013-02-25 02:20:00,42.0,41.5,30.23,East,100,2.0,7.0,98,0.00,,,0.00,0.0,WeatherDisplay:10.37,2013-02-25 00:20:00,
2013-02-25 02:30:00,42.0,41.5,30.23,East,81,2.0,6.0,98,0.00,,,0.00,0.0,WeatherDisplay:10.37,2013-02-25 00:30:00,
2013-02-25 02:40:00,42.1,41.6,30.23,East,81,2.0,4.0,98,0.00,,,0.00,0.0,WeatherDisplay:10.37,2013-02-25 00:40:00,
2013-02-25 02:50:00,42.0,41.5,30.23,ENE,77,1.0,4.0,98,0.00,,,0.00,0.0,WeatherDisplay:10.37,2013-02-25 00:50:00,
2013-02-25 03:00:00,41.9,41.4,30.23,NE,53,0.0,4.0,98,0.00,,,0.00,0.0,WeatherDisplay:10.37,2013-02-25 01:00:00,
2013-02-25 03:10:00,41.9,41.3,30.23,NE,39,5.0,7.0,98,0.00,,,0.00,0.0,WeatherDisplay:10.37,2013-02-25 01:10:00,
2013-02-25 03:20:00,41.7,41.2,30.23,ENE,68,6.0,10.0,98,0.00,,,0.00,0.0,WeatherDisplay:10.37,2013-02-25 01:20:00,
2013-02-25 03:30:00,41.7,41.2,30.24,ENE,73,5.0,9.0,98,0.00,,,0.00,0.0,WeatherDisplay:10.37,2013-02-25 01:30:00,
2013-02-25 03:40:00,41.6,41.1,30.23,ENE,65,3.0,9.0,98,0.00,,,0.00,0.0,WeatherDisplay:10.37,2013-02-25 01:40:00,
2013-02-25 03:50:00,41.5,41.0,30.23,East,85,5.0,9.0,98,0.00,,,0.00,0.0,WeatherDisplay:10.37,2013-02-25 01:50:00,
2013-02-25 04:00:00,41.3,40.8,30.23,East,85,5.0,9.0,98,0.00,,,0.00,0.0,WeatherDisplay:10.37,2013-02-25 02:00:00,
2013-02-25 04:10:00,41.3,40.8,30.23,ENE,72,7.0,12.0,98,0.00,,,0.00,0.0,WeatherDisplay:10.37,2013-02-25 02:10:00,
2013-02-25 04:20:00,41.1,40.6,30.23,East,87,6.0,13.0,98,0.00,,,0.00,0.0,WeatherDisplay:10.37,2013-02-25 02:20:00,
2013-02-25 04:30:00,41.1,40.6,30.23,ENE,73,8.0,12.0,98,0.00,,,0.00,0.0,WeatherDisplay:10.37,2013-02-25 02:30:00,
2013-02-25 04:40:00,41.0,40.5,30.23,ENE,77,7.0,12.0,98,0.00,,,0.00,0.0,WeatherDisplay:10.37,2013-02-25 02:40:00,
2013-02-25 04:50:00,41.2,40.7,30.24,ENE,74,6.0,9.0,98,0.00,,,0.00,0.0,WeatherDisplay:10.37,2013-02-25 02:50:00,
2013-02-25 05:00:00,41.2,40.7,30.24,ENE,68,7.0,10.0,98,0.00,,,0.00,0.0,WeatherDisplay:10.37,2013-02-25 03:00:00,
2013-02-25 05:10:00,41.2,40.7,30.24,ENE,73,6.0,12.0,98,0.00,,,0.00,0.0,WeatherDisplay:10.37,2013-02-25 03:10:00,
2013-02-25 05:20:00,41.1,40.6,30.24,ENE,73,7.0,13.0,98,0.00,,,0.00,0.0,WeatherDisplay:10.37,2013-02-25 03:20:00,
2013-02-25 05:30:00,41.1,40.6,30.24,East,87,6.0,9.0,98,0.00,,,0.00,0.0,WeatherDisplay:10.37,2013-02-25 03:30:00,
2013-02-25 05:40:00,40.9,40.4,30.24,East,84,8.0,12.0,98,0.00,,,0.00,0.0,WeatherDisplay:10.37,2013-02-25 03:40:00,
2013-02-25 05:50:00,41.0,40.5,30.24,East,90,6.0,12.0,98,0.00,,,0.00,0.0,WeatherDisplay:10.37,2013-02-25 03:50:00,
2013-02-25 06:00:00,40.8,40.3,30.24,East,90,7.0,12.0,98,0.00,,,0.00,0.0,WeatherDisplay:10.37,2013-02-25 04:00:00,
2013-02-25 06:10:00,40.9,40.4,30.24,East,84,5.0,10.0,98,0.00,,,0.00,0.0,WeatherDisplay:10.37,2013-02-25 04:10:00,
2013-02-25 06:20:00,40.8,40.3,30.24,ENE,72,8.0,12.0,98,0.00,,,0.00,0.0,WeatherDisplay:10.37,2013-02-25 04:20:00,
2013-02-25 06:30:00,40.9,40.4,30.24,East,80,6.0,9.0,98,0.00,,,0.00,0.0,WeatherDisplay:10.37,2013-02-25 04:30:00,
2013-02-25 06:40:00,40.9,40.4,30.24,East,92,6.0,10.0,98,0.00,,,0.00,0.0,WeatherDisplay:10.37,2013-02-25 04:40:00,
2013-02-25 06:50:00,40.8,40.3,30.24,East,84,6.0,12.0,98,0.00,,,0.00,0.0,WeatherDisplay:10.37,2013-02-25 04:50:00,
2013-02-25 07:00:00,40.9,40.4,30.25,ENE,77,6.0,9.0,98,0.00,,,0.00,0.0,WeatherDisplay:10.37,2013-02-25 05:00:00,
2013-02-25 07:10:00,41.0,40.4,30.25,East,83,6.0,12.0,98,0.00,,,0.00,9.0,WeatherDisplay:10.37,2013-02-25 05:10:00,
2013-02-25 07:20:00,41.0,40.5,30.25,East,84,7.0,10.0,98,0.00,,,0.00,16.0,WeatherDisplay:10.37,2013-02-25 05:20:00,
2013-02-25 07:30:00,40.9,40.4,30.25,ENE,75,8.0,12.0,98,0.00,,,0.00,23.0,WeatherDisplay:10.37,2013-02-25 05:30:00,
2013-02-25 07:40:00,41.0,40.5,30.25,East,83,6.0,10.0,98,0.00,,,0.00,30.0,WeatherDisplay:10.37,2013-02-25 05:40:00,
2013-02-25 07:50:00,41.2,40.7,30.26,ENE,72,8.0,12.0,98,0.00,,,0.00,40.0,WeatherDisplay:10.37,2013-02-25 05:50:00,
2013-02-25 08:00:00,40.9,40.4,30.26,ENE,70,6.0,12.0,98,0.00,OVC,,0.00,35.0,WeatherDisplay:10.37,2013-02-25 06:00:00,
2013-02-25 08:10:00,41.0,40.5,30.26,East,81,6.0,10.0,98,0.00,OVC,,0.00,60.0,WeatherDisplay:10.37,2013-02-25 06:10:00,
2013-02-25 08:20:00,41.0,40.5,30.26,East,80,7.0,12.0,98,0.00,BKN,,0.00,83.0,WeatherDisplay:10.37,2013-02-25 06:20:00,
2013-02-25 08:30:00,41.1,40.5,30.26,East,80,6.0,10.0,98,0.00,BKN,,0.00,95.0,WeatherDisplay:10.37,2013-02-25 06:30:00,
2013-02-25 08:50:00,41.3,40.8,30.27,ENE,71,2.0,8.0,98,0.00,BKN,,0.00,120.0,WeatherDisplay:10.37,2013-02-25 06:50:00,
2013-02-25 09:00:00,41.5,41.0,30.27,ENE,63,2.0,7.0,98,0.00,BKN,,0.00,123.0,WeatherDisplay:10.37,2013-02-25 07:00:00,
2013-02-25 09:10:00,41.6,41.1,30.27,NE,53,3.0,5.0,98,0.00,BKN,,0.00,132.0,WeatherDisplay:10.37,2013-02-25 07:10:00,
2013-02-25 09:20:00,41.7,41.2,30.27,ENE,67,3.0,6.0,98,0.00,BKN,,0.00,142.0,WeatherDisplay:10.37,2013-02-25 07:20:00,
2013-02-25 09:30:00,41.9,41.4,30.27,ENE,74,2.0,6.0,98,0.00,BKN,,0.00,141.0,WeatherDisplay:10.37,2013-02-25 07:30:00,
2013-02-25 09:40:00,41.6,41.1,30.27,NE,55,2.0,8.0,98,0.00,SCT,,0.00,221.0,WeatherDisplay:10.37,2013-02-25 07:40:00,
2013-02-25 09:50:00,41.7,41.2,30.27,ENE,62,6.0,9.0,98,0.00,BKN,,0.00,169.0,WeatherDisplay:10.37,2013-02-25 07:50:00,
2013-02-25 10:00:00,41.7,41.2,30.27,ENE,65,2.0,6.0,98,0.00,BKN,,0.00,206.0,WeatherDisplay:10.37,2013-02-25 08:00:00,
2013-02-25 10:10:00,41.9,41.3,30.27,NE,56,5.0,7.0,98,0.00,BKN,,0.00,190.0,WeatherDisplay:10.37,2013-02-25 08:10:00,
2013-02-25 10:20:00,41.7,41.2,30.27,NE,55,3.0,8.0,98,0.00,BKN,,0.00,223.0,WeatherDisplay:10.37,2013-02-25 08:20:00,
2013-02-25 10:30:00,41.9,41.4,30.27,ENE,72,3.0,6.0,98,0.00,BKN,,0.00,214.0,WeatherDisplay:10.37,2013-02-25 08:30:00,
2013-02-25 10:40:00,42.2,41.7,30.27,ENE,76,2.0,5.0,98,0.00,SCT,,0.00,258.0,WeatherDisplay:10.37,2013-02-25 08:40:00,
2013-02-25 10:50:00,42.1,41.6,30.27,ENE,75,2.0,6.0,98,0.00,BKN,,0.00,257.0,WeatherDisplay:10.37,2013-02-25 08:50:00,
2013-02-25 11:00:00,42.2,41.6,30.27,NE,55,3.0,8.0,98,0.00,BKN,,0.00,236.0,WeatherDisplay:10.37,2013-02-25 09:00:00,
2013-02-25 11:10:00,42.2,41.6,30.27,ENE,58,6.0,8.0,98,0.00,BKN,,0.00,271.0,WeatherDisplay:10.37,2013-02-25 09:10:00,
2013-02-25 11:20:00,42.5,42.0,30.27,ENE,58,5.0,8.0,98,0.00,BKN,,0.00,232.0,WeatherDisplay:10.37,2013-02-25 09:20:00,
2013-02-25 11:30:00,42.5,42.0,30.27,NE,50,5.0,8.0,98,0.00,BKN,,0.00,244.0,WeatherDisplay:10.37,2013-02-25 09:30:00,
2013-02-25 11:40:00,42.2,41.7,30.27,ENE,63,2.0,7.0,98,0.00,BKN,,0.00,232.0,WeatherDisplay:10.37,2013-02-25 09:40:00,
2013-02-25 11:50:00,42.4,41.9,30.27,NE,35,3.0,8.0,98,0.00,BKN,,0.00,250.0,WeatherDisplay:10.37,2013-02-25 09:50:00,
2013-02-25 12:00:00,42.2,41.7,30.27,NE,52,5.0,8.0,98,0.00,BKN,,0.00,239.0,WeatherDisplay:10.37,2013-02-25 10:00:00,
2013-02-25 12:10:00,42.3,41.8,30.27,NNE,31,5.0,9.0,98,0.00,BKN,,0.00,237.0,WeatherDisplay:10.37,2013-02-25 10:10:00,
2013-02-25 12:20:00,42.2,41.7,30.26,NE,40,6.0,10.0,98,0.00,BKN,,0.00,271.0,WeatherDisplay:10.37,2013-02-25 10:20:00,
2013-02-25 12:30:00,42.6,42.1,30.26,NE,56,6.0,8.0,98,0.00,BKN,,0.00,236.0,WeatherDisplay:10.37,2013-02-25 10:30:00,
2013-02-25 12:40:00,42.6,42.1,30.26,ENE,62,7.0,12.0,98,0.00,BKN,,0.00,236.0,WeatherDisplay:10.37,2013-02-25 10:40:00,
2013-02-25 12:50:00,42.8,42.3,30.25,NE,53,6.0,8.0,98,0.00,BKN,,0.00,213.0,WeatherDisplay:10.37,2013-02-25 10:50:00,
2013-02-25 13:00:00,42.4,41.9,30.25,ENE,59,3.0,9.0,98,0.00,BKN,,0.00,246.0,WeatherDisplay:10.37,2013-02-25 11:00:00,
2013-02-25 13:10:00,43.0,42.5,30.24,ENE,64,2.0,7.0,98,0.00,BKN,,0.00,223.0,WeatherDisplay:10.37,2013-02-25 11:10:00,
2013-02-25 13:20:00,42.8,42.3,30.24,ENE,77,2.0,9.0,98,0.00,BKN,,0.00,216.0,WeatherDisplay:10.37,2013-02-25 11:20:00,
2013-02-25 13:30:00,42.9,42.4,30.24,ENE,76,6.0,9.0,98,0.00,OVC,,0.00,197.0,WeatherDisplay:10.37,2013-02-25 11:30:00,
2013-02-25 13:40:00,42.8,42.3,30.24,NNE,33,6.0,9.0,98,0.00,OVC,,0.00,183.0,WeatherDisplay:10.37,2013-02-25 11:40:00,
2013-02-25 13:50:00,42.4,41.9,30.24,NE,38,5.0,10.0,98,0.00,OVC,,0.00,179.0,WeatherDisplay:10.37,2013-02-25 11:50:00,
2013-02-25 14:00:00,42.7,42.2,30.24,NE,35,7.0,12.0,98,0.00,OVC,,0.00,153.0,WeatherDisplay:10.37,2013-02-25 12:00:00,
2013-02-25 14:10:00,42.5,41.9,30.24,NE,39,7.0,12.0,98,0.00,OVC,,0.00,156.0,WeatherDisplay:10.37,2013-02-25 12:10:00,
2013-02-25 14:20:00,42.4,41.9,30.24,NE,50,7.0,10.0,98,0.00,OVC,,0.00,156.0,WeatherDisplay:10.37,2013-02-25 12:20:00,
2013-02-25 14:30:00,42.7,42.2,30.23,NE,50,7.0,10.0,98,0.00,OVC,,0.00,134.0,WeatherDisplay:10.37,2013-02-25 12:30:00,
2013-02-25 14:40:00,42.8,42.3,30.23,NE,36,8.0,12.0,98,0.00,OVC,,0.00,148.0,WeatherDisplay:10.37,2013-02-25 12:40:00,
2013-02-25 14:50:00,43.0,42.4,30.23,NE,43,6.0,10.0,98,0.00,OVC,,0.00,142.0,WeatherDisplay:10.37,2013-02-25 12:50:00,
2013-02-25 15:00:00,42.9,42.4,30.23,ENE,60,8.0,12.0,98,0.00,OVC,,0.00,144.0,WeatherDisplay:10.37,2013-02-25 13:00:00,
2013-02-25 15:10:00,42.8,42.3,30.22,NE,53,5.0,10.0,98,0.00,OVC,,0.00,127.0,WeatherDisplay:10.37,2013-02-25 13:10:00,
2013-02-25 15:20:00,42.7,42.2,30.22,NE,49,7.0,10.0,98,0.00,OVC,,0.00,118.0,WeatherDisplay:10.37,2013-02-25 13:20:00,
2013-02-25 15:30:00,42.8,42.3,30.22,NE,52,9.0,12.0,98,0.00,BKN,,0.00,134.0,WeatherDisplay:10.37,2013-02-25 13:30:00,
2013-02-25 15:40:00,42.7,42.1,30.22,ENE,61,9.0,12.0,98,0.00,OVC,,0.00,90.0,WeatherDisplay:10.37,2013-02-25 13:40:00,
2013-02-25 15:50:00,42.9,42.4,30.22,ENE,58,6.0,10.0,98,0.00,OVC,,0.00,88.0,WeatherDisplay:10.37,2013-02-25 13:50:00,
2013-02-25 16:00:00,43.0,42.5,30.22,ENE,58,5.0,10.0,98,0.00,,,0.00,83.0,WeatherDisplay:10.37,2013-02-25 14:00:00,
2013-02-25 16:20:00,42.9,42.4,30.22,ENE,78,7.0,7.0,98,0.00,BKN,,0.00,83.0,WeatherDisplay:10.37,2013-02-25 14:20:00,
2013-02-25 16:30:00,42.9,42.4,30.22,ENE,78,7.0,7.0,98,0.00,BKN,,0.00,83.0,WeatherDisplay:10.37,2013-02-25 14:30:00,
2013-02-25 16:40:00,42.9,42.4,30.22,ENE,78,7.0,7.0,98,0.00,SCT,,0.00,83.0,WeatherDisplay:10.37,2013-02-25 14:40:00,
2013-02-25 17:00:00,42.4,41.9,30.20,ENE,74,8.0,13.0,98,0.00,,,0.00,25.0,WeatherDisplay:10.37,2013-02-25 15:00:00,
2013-02-25 17:10:00,42.5,41.9,30.20,East,81,7.0,12.0,98,0.00,,,0.00,14.0,WeatherDisplay:10.37,2013-02-25 15:10:00,
2013-02-25 17:20:00,42.5,42.0,30.20,East,80,7.0,14.0,98,0.00,,,0.00,12.0,WeatherDisplay:10.37,2013-02-25 15:20:00,
2013-02-25 17:30:00,42.6,42.0,30.20,ENE,69,6.0,12.0,98,0.00,,,0.00,11.0,WeatherDisplay:10.37,2013-02-25 15:30:00,
2013-02-25 17:40:00,42.4,41.9,30.20,ENE,69,8.0,14.0,98,0.00,,,0.00,5.0,WeatherDisplay:10.37,2013-02-25 15:40:00,
2013-02-25 17:50:00,42.4,41.9,30.20,ENE,66,9.0,12.0,98,0.00,,,0.00,0.0,WeatherDisplay:10.37,2013-02-25 15:50:00,
2013-02-25 18:00:00,42.4,41.9,30.21,ENE,59,7.0,12.0,98,0.00,,,0.00,0.0,WeatherDisplay:10.37,2013-02-25 16:00:00,
2013-02-25 18:10:00,42.5,42.0,30.21,ENE,59,10.0,12.0,98,0.00,,,0.00,0.0,WeatherDisplay:10.37,2013-02-25 16:10:00,
2013-02-25 18:20:00,42.3,41.8,30.21,ENE,61,10.0,13.0,98,0.00,,,0.00,0.0,WeatherDisplay:10.37,2013-02-25 16:20:00,
2013-02-25 18:30:00,42.4,41.9,30.21,ENE,58,7.0,10.0,98,0.00,,,0.00,0.0,WeatherDisplay:10.37,2013-02-25 16:30:00,
2013-02-25 18:40:00,42.4,41.8,30.21,ENE,65,7.0,12.0,98,0.00,,,0.00,0.0,WeatherDisplay:10.37,2013-02-25 16:40:00,
2013-02-25 18:50:00,42.4,41.9,30.21,ENE,67,5.0,10.0,98,0.00,,,0.00,0.0,WeatherDisplay:10.37,2013-02-25 16:50:00,
2013-02-25 19:00:00,42.4,41.9,30.21,NE,50,8.0,12.0,98,0.00,,,0.00,0.0,WeatherDisplay:10.37,2013-02-25 17:00:00,
2013-02-25 19:10:00,42.3,41.8,30.22,NE,46,7.0,12.0,98,0.00,,,0.00,0.0,WeatherDisplay:10.37,2013-02-25 17:10:00,
2013-02-25 19:20:00,42.3,41.8,30.21,NE,44,6.0,12.0,98,0.00,,,0.00,0.0,WeatherDisplay:10.37,2013-02-25 17:20:00,
2013-02-25 19:30:00,42.3,41.8,30.22,NE,41,8.0,13.0,98,0.00,,,0.00,0.0,WeatherDisplay:10.37,2013-02-25 17:30:00,
2013-02-25 19:40:00,42.3,41.8,30.22,NE,40,7.0,10.0,98,0.00,,,0.00,0.0,WeatherDisplay:10.37,2013-02-25 17:40:00,
2013-02-25 19:50:00,42.4,41.9,30.22,NE,39,7.0,12.0,98,0.00,,,0.00,0.0,WeatherDisplay:10.37,2013-02-25 17:50:00,
2013-02-25 20:00:00,42.3,41.8,30.22,NE,45,5.0,10.0,98,0.00,,,0.00,0.0,WeatherDisplay:10.37,2013-02-25 18:00:00,
2013-02-25 20:10:00,42.4,41.9,30.22,NE,39,5.0,8.0,98,0.00,,,0.00,0.0,WeatherDisplay:10.37,2013-02-25 18:10:00,
2013-02-25 20:20:00,42.4,41.9,30.22,NE,45,7.0,12.0,98,0.00,,,0.00,0.0,WeatherDisplay:10.37,2013-02-25 18:20:00,
2013-02-25 20:30:00,42.5,42.0,30.22,NE,42,8.0,12.0,98,0.00,,,0.00,0.0,WeatherDisplay:10.37,2013-02-25 18:30:00,
2013-02-25 20:40:00,42.6,42.1,30.22,NE,43,8.0,13.0,98,0.00,,,0.00,0.0,WeatherDisplay:10.37,2013-02-25 18:40:00,
2013-02-25 20:50:00,42.6,42.1,30.22,NE,44,6.0,13.0,98,0.00,,,0.00,0.0,WeatherDisplay:10.37,2013-02-25 18:50:00,
2013-02-25 21:00:00,42.7,42.2,30.21,NE,46,9.0,13.0,98,0.00,,,0.00,0.0,WeatherDisplay:10.37,2013-02-25 19:00:00,
2013-02-25 21:10:00,42.8,42.3,30.21,NE,43,6.0,12.0,98,0.00,,,0.00,0.0,WeatherDisplay:10.37,2013-02-25 19:10:00,
2013-02-25 21:20:00,42.8,42.2,30.21,NE,39,10.0,14.0,98,0.00,,,0.00,0.0,WeatherDisplay:10.37,2013-02-25 19:20:00,
2013-02-25 21:30:00,42.7,42.2,30.21,NE,50,9.0,15.0,98,0.00,,,0.00,0.0,WeatherDisplay:10.37,2013-02-25 19:30:00,
2013-02-25 21:40:00,42.8,42.3,30.21,NE,43,6.0,13.0,98,0.00,,,0.00,0.0,WeatherDisplay:10.37,2013-02-25 19:40:00,
2013-02-25 21:50:00,42.8,42.3,30.21,NE,36,6.0,14.0,98,0.00,,,0.00,0.0,WeatherDisplay:10.37,2013-02-25 19:50:00,
2013-02-25 22:00:00,42.8,42.3,30.21,NE,39,9.0,17.0,98,0.00,,,0.00,0.0,WeatherDisplay:10.37,2013-02-25 20:00:00,
2013-02-25 22:10:00,42.7,42.2,30.21,NE,39,8.0,13.0,98,0.00,,,0.00,0.0,WeatherDisplay:10.37,2013-02-25 20:10:00,
2013-02-25 22:20:00,42.8,42.3,30.21,NE,45,9.0,13.0,98,0.00,,,0.00,0.0,WeatherDisplay:10.37,2013-02-25 20:20:00,
2013-02-25 22:30:00,42.9,42.4,30.21,NE,40,7.0,12.0,98,0.00,,,0.00,0.0,WeatherDisplay:10.37,2013-02-25 20:30:00,
2013-02-25 22:40:00,42.9,42.4,30.20,NE,46,9.0,13.0,98,0.00,,,0.00,0.0,WeatherDisplay:10.37,2013-02-25 20:40:00,
2013-02-25 22:50:00,43.0,42.5,30.21,NNE,29,2.0,12.0,98,0.00,,,0.00,0.0,WeatherDisplay:10.37,2013-02-25 20:50:00,
2013-02-25 23:00:00,43.0,42.5,30.20,NNE,25,7.0,12.0,98,0.00,,,0.00,0.0,WeatherDisplay:10.37,2013-02-25 21:00:00,
2013-02-25 23:10:00,43.0,42.5,30.20,NNE,32,7.0,10.0,98,0.00,,,0.00,0.0,WeatherDisplay:10.37,2013-02-25 21:10:00,
2013-02-25 23:20:00,43.1,42.6,30.20,NNE,17,7.0,10.0,98,0.00,,,0.00,0.0,WeatherDisplay:10.37,2013-02-25 21:20:00,
2013-02-25 23:30:00,43.1,42.6,30.20,NNE,19,7.0,12.0,98,0.00,,,0.00,0.0,WeatherDisplay:10.37,2013-02-25 21:30:00,
2013-02-25 23:40:00,43.2,42.7,30.20,NNE,15,6.0,12.0,98,0.00,,,0.00,0.0,WeatherDisplay:10.37,2013-02-25 21:40:00,
2013-02-25 23:50:00,43.2,42.7,30.20,NNE,17,5.0,12.0,98,0.00,,,0.00,0.0,WeatherDisplay:10.37,2013-02-25 21:50:00,